This is the latest recevied weather packets stored in our database for station/object W1GK. If no packets are shown the sender has not sent any weather packets the latest 1 day(s).
| Time | Temp. | Humidity | Pressure | Rain* | Wind** | Luminosity | Snow |
|---|---|---|---|---|---|---|---|
| 1778044800 | 18.33° C | 29% | 1012 hPa | 0 mm | - | 0 W/m² | - |
| 1778044199 | 18.33° C | 29% | 1011.9 hPa | 0 mm | - | 0 W/m² | - |
| 1778043001 | 18.89° C | 28% | 1011.7 hPa | 0 mm | - | 0 W/m² | - |
| 1778042400 | 18.89° C | 28% | 1011.6 hPa | 0 mm | - | 0 W/m² | - |
| 1778041802 | 19.44° C | 27% | 1011.6 hPa | 0 mm | - | 0 W/m² | - |
| 1778040000 | 19.44° C | 26% | 1011.1 hPa | 0 mm | - | 0 W/m² | - |
| 1778038800 | 20° C | 26% | 1010.8 hPa | 0 mm | - | 0 W/m² | - |
| 1778037000 | 20.56° C | 25% | 1010.3 hPa | 0 mm | - | 0 W/m² | - |
| 1778035801 | 21.11° C | 24% | 1009.9 hPa | 0 mm | - | 0 W/m² | - |
| 1778035198 | 21.11° C | 24% | 1009.8 hPa | 0 mm | - | 0 W/m² | - |
| 1778034599 | 21.67° C | 24% | 1009.7 hPa | 0 mm | - | 5 W/m² | - |
| 1778034000 | 21.67° C | 23% | 1009.7 hPa | 0 mm | - | 11 W/m² | - |
| 1778033401 | 22.22° C | 23% | 1009.5 hPa | 0 mm | - | 12 W/m² | - |
| 1778032800 | 22.22° C | 22% | 1009.4 hPa | 0 mm | - | 18 W/m² | - |
| 1778031599 | 22.78° C | 21% | 1009.3 hPa | 0 mm | - | 25 W/m² | - |
| 1778030998 | 23.33° C | 20% | 1009.2 hPa | 0 mm | - | 148 W/m² | - |
| 1778030400 | 23.89° C | 19% | 1009.2 hPa | 0 mm | - | 178 W/m² | - |
| 1778029799 | 24.44° C | 18% | 1009.1 hPa | 0 mm | - | 211 W/m² | - |
| 1778029199 | 24.44° C | 16% | 1009.1 hPa | 0 mm | - | 241 W/m² | - |
| 1778028598 | 24.44° C | 16% | 1009.1 hPa | 0 mm | - | 274 W/m² | - |
| 1778027999 | 23.89° C | 16% | 1009 hPa | 0 mm | - | 304 W/m² | - |
| 1778026199 | 25.56° C | 15% | 1008.9 hPa | 0 mm | - | 403 W/m² | - |
| 1778022001 | 25° C | 18% | 1009.1 hPa | 0 mm | - | 633 W/m² | - |
| 1778020199 | 25° C | 19% | 1009.5 hPa | 0 mm | - | 95 W/m² | - |
| 1778019601 | 25° C | 18% | 1009.5 hPa | 0 mm | - | 786 W/m² | - |
* Rain latest hour (hover to see other rain measurements)
** Current wind speed in m/s (hover to see current wind gust speed)